Flag for Germany Weather past 2 weeks in Göttingen, Lower Saxony, Germany

Now
43 °F

Clear.


Feels Like: 35 °F
Forecast: 34 / 42 °F
Wind: 15 mph from Southwest

Location: Kassel / Calden

Current Time: Mar 2, 2015 at 6:38:35 PM

Latest Report: Mar 2, 2015 at 6:20 PM


Visibility: 10 mi

Pressure: 29.68 "Hg

Humidity: 57%

Dew point: 28 °F

Location of GöttingenLocation

Historic Weather in Göttingen — Graph

°F

Göttingen temperature yesterday

Maximum temperature yesterday: 48 °F (at 1:50 PM)
Minimum temperature yesterday: 36 °F (at 6:20 AM)
Average temperature yesterday: 43 °F

Past Weeks' High & Low Weather Summary

 TemperatureHumidityPressure
High48 °F (Feb 20, 9:20 PM)100% (Feb 16, 6:50 AM)30.74 "Hg (Feb 16, 6:50 AM)
Low25 °F (Feb 16, 6:50 AM)42% (Mar 2, 3:50 PM)29.36 "Hg (Feb 21, 6:50 AM)
Average38 °F79%29.94 "Hg
* Reported Feb 15 5:20 PM — Mar 2 5:20 PM, Göttingen, Weather by CustomWeather, © 2015

Note: Actual official high and low records may vary slightly from our data, if they occured in-between our weather recording intervals... More about our weather records

Advertising

Göttingen weather history for previous 24 hours

 ConditionsComfort  
Time TempWeatherWind HumidityBarometerVisibility
5:20 PM
Mon, Mar 2
43 °FSunny.14 mph53%29.65 "Hg10 mi
4:50 PM43 °FSunny.20 mph53%29.65 "Hg10 mi
4:20 PM45 °FSunny.16 mph46%29.65 "Hg10 mi
3:50 PM45 °FPassing clouds.18 mph42%29.65 "HgN/A
3:20 PM45 °FSunny.17 mph49%29.65 "Hg10 mi
2:50 PM45 °FSunny.22 mph46%29.65 "Hg10 mi
2:20 PM45 °FSunny.17 mph49%29.65 "Hg10 mi
1:50 PM45 °FSunny.18 mph46%29.62 "Hg10 mi
1:20 PM45 °FScattered clouds.20 mph49%29.62 "HgN/A
12:50 PM45 °FScattered clouds.21 mph49%29.62 "HgN/A
12:20 PM45 °FScattered clouds.17 mph53%29.62 "HgN/A
11:50 AM43 °FScattered clouds.21 mph57%29.62 "HgN/A
11:20 AM41 °FScattered clouds.20 mph57%29.59 "HgN/A
10:50 AM41 °FScattered clouds.16 mph66%29.59 "HgN/A
10:20 AM39 °FPartly sunny.22 mph65%29.59 "HgN/A
9:50 AM39 °FPartly sunny.15 mph70%29.59 "HgN/A
9:20 AM37 °FPartly sunny.18 mph75%29.56 "HgN/A
8:50 AM37 °FScattered clouds.14 mph75%29.56 "HgN/A
8:20 AM37 °FScattered clouds.14 mph75%29.53 "HgN/A
7:50 AM37 °FPassing clouds.20 mph75%29.53 "HgN/A
7:20 AM37 °FPassing clouds.12 mph75%29.53 "HgN/A
6:50 AM37 °FPassing clouds.10 mph81%29.50 "HgN/A
6:20 AM39 °FPassing clouds.12 mph75%29.50 "HgN/A
5:50 AM39 °FPassing clouds.13 mph81%29.47 "HgN/A
9:50 PM
Sun, Mar 1
45 °FOvercast.9 mph71%29.59 "HgN/A
9:20 PM45 °FClear.13 mph71%29.59 "Hg10 mi
8:20 PM43 °FClear.10 mph71%29.59 "Hg10 mi
7:50 PM45 °FPassing clouds.8 mph66%29.62 "HgN/A
7:20 PM43 °FClear.7 mph71%29.62 "Hg10 mi
6:50 PM43 °FClear.8 mph71%29.59 "Hg10 mi
6:20 PM45 °FPassing clouds.13 mph66%29.59 "HgN/A
Weather by CustomWeather, © 2015

See weather overviewHow to use our weather pages